This is the latest recevied weather packets stored in our database for station/object N6DZK. If no packets are shown the sender has not sent any weather packets the latest 10 day(s).
| Time | Temp. | Humidity | Pressure | Rain* | Wind** | Luminosity | Snow |
|---|---|---|---|---|---|---|---|
| 1777952486 | 14.44° C | 68% | 1014.8 hPa | 0 mm | - | 0 W/m² | - |
| 1777952183 | 14.44° C | 68% | 1014.4 hPa | 0 mm | - | 0 W/m² | - |
| 1777951881 | 14.44° C | 68% | 1014.7 hPa | 0 mm | - | 0 W/m² | - |
| 1777951579 | 14.44° C | 66% | 1014.6 hPa | 0 mm | - | 0 W/m² | - |
| 1777951275 | 15° C | 65% | 1014.5 hPa | 0 mm | - | 0 W/m² | - |
| 1777950972 | 15° C | 65% | 1014.8 hPa | 0 mm | - | 0 W/m² | - |
| 1777950668 | 15° C | 65% | 1014.6 hPa | 0 mm | - | 0 W/m² | - |
| 1777950366 | 15.56° C | 65% | 1014.7 hPa | 0 mm | - | 1 W/m² | - |
| 1777950061 | 15.56° C | 65% | 1014.7 hPa | 0 mm | - | 1 W/m² | - |
| 1777949757 | 15.56° C | 64% | 1014.5 hPa | 0 mm | - | 2 W/m² | - |
| 1777949457 | 15.56° C | 65% | 1014.3 hPa | 0 mm | - | 3 W/m² | - |
| 1777949153 | 15.56° C | 64% | 1014.5 hPa | 0 mm | - | 4 W/m² | - |
| 1777948850 | 15.56° C | 65% | 1014.7 hPa | 0 mm | - | 5 W/m² | - |
| 1777948547 | 15.56° C | 64% | 1014.6 hPa | 0 mm | - | 7 W/m² | - |
| 1777948245 | 15.56° C | 64% | 1014.7 hPa | 0 mm | - | 13 W/m² | - |
| 1777947942 | 16.11° C | 63% | 1014.5 hPa | 0 mm | - | 21 W/m² | - |
| 1777947639 | 16.11° C | 63% | 1014.5 hPa | 0 mm | - | 30 W/m² | - |
| 1777947336 | 16.11° C | 63% | 1014.4 hPa | 0 mm | - | 32 W/m² | - |
| 1777947033 | 16.11° C | 62% | 1014.3 hPa | 0 mm | - | 29 W/m² | - |
| 1777946732 | 16.11° C | 63% | 1014.6 hPa | 0 mm | - | 29 W/m² | - |
| 1777946430 | 16.11° C | 62% | 1014.4 hPa | 0 mm | - | 44 W/m² | - |
| 1777946127 | 16.11° C | 62% | 1014.5 hPa | 0 mm | - | 66 W/m² | - |
| 1777945824 | 16.11° C | 63% | 1014.2 hPa | 0 mm | - | 66 W/m² | - |
| 1777945520 | 16.11° C | 62% | 1014.3 hPa | 0 mm | - | 45 W/m² | - |
| 1777945218 | 16.11° C | 62% | 1014.4 hPa | 0 mm | - | 30 W/m² | - |
* Rain latest hour (hover to see other rain measurements)
** Current wind speed in m/s (hover to see current wind gust speed)